When you browse on this site, cookies collect data to enhance your experience and personalize the content and advertising you see.
Visit our Privacy Policy to learn more. By continuing to use the site, you agree to this use of cookies and data.
  • In Latvia
  • List of Countries
  • For 7 days
  • Water Temperature
  • Weather Map
  • Weather Widgets
  • user-avatar
    Login

    Hourly Weather Vanadzor

    Today, 7 December, Saturday

    Time Temperature Precipitation Wind Pressure Humidity
    00:00 -4°C° 0 mm 0 mps 637 mmHg 87%
    01:00 -4°C° 0 mm 0 mps 637 mmHg 86%
    02:00 -4°C° 0 mm 0 mps 637 mmHg 85%
    03:00 -4°C° 0 mm 0 mps 637 mmHg 86%
    04:00 -4°C° 0 mm 0 mps 637 mmHg 85%
    05:00 -4°C° 0 mm 0 mps 636 mmHg 85%
    06:00 -4°C° 0 mm 0 mps 636 mmHg 84%
    07:00 -3°C° 0 mm 0 mps 636 mmHg 82%
    08:00 -2°C° 0 mm 0 mps 637 mmHg 80%
    09:00 -1°C° 0 mm 0 mps 637 mmHg 79%
    10:00 0°C° 0 mm 0 mps 636 mmHg 78%
    11:00 +2°C° 0 mm 1 mps 636 mmHg 78%
    12:00 +3°C° 0 mm 1 mps 636 mmHg 77%
    13:00 +3°C° 0 mm 1 mps 635 mmHg 79%
    14:00 +2°C° 0 mm 1 mps 635 mmHg 81%
    15:00 +2°C° 0 mm 1 mps 634 mmHg 83%
    16:00 +1°C° 0 mm 1 mps 634 mmHg 85%
    17:00 0°C° 0 mm 1 mps 634 mmHg 86%
    18:00 -2°C° 0 mm 0 mps 634 mmHg 88%
    19:00 -2°C° 0 mm 0 mps 633 mmHg 87%
    20:00 -2°C° 0 mm 0 mps 633 mmHg 86%
    21:00 -3°C° 0 mm 0 mps 633 mmHg 84%
    22:00 -3°C° 0 mm 0 mps 633 mmHg 84%
    23:00 -3°C° 0 mm 0 mps 633 mmHg 83%

    Tomorrow, 8 December, Sunday

    Time Temperature Precipitation Wind Pressure Humidity
    00:00 -3°C° 0 mm 0 mps 632 mmHg 82%
    01:00 -3°C° 0 mm 0 mps 632 mmHg 82%
    02:00 -3°C° 0 mm 0 mps 632 mmHg 82%
    03:00 -3°C° 0 mm 0 mps 631 mmHg 82%
    04:00 -3°C° 0 mm 0 mps 631 mmHg 81%
    05:00 -3°C° 0 mm 0 mps 631 mmHg 80%
    06:00 -3°C° 0 mm 0 mps 630 mmHg 79%
    07:00 -1°C° 0 mm 1 mps 631 mmHg 77%
    08:00 0°C° 0 mm 1 mps 631 mmHg 75%
    09:00 +1°C° 0 mm 1 mps 631 mmHg 73%
    10:00 +2°C° 0 mm 1 mps 631 mmHg 72%
    11:00 +2°C° 0 mm 0 mps 631 mmHg 71%
    12:00 +3°C° 0 mm 0 mps 630 mmHg 71%
    13:00 +3°C° 0 mm 0 mps 630 mmHg 73%
    14:00 +3°C° 0 mm 0 mps 630 mmHg 75%
    15:00 +2°C° 0 mm 0 mps 629 mmHg 77%
    16:00 +3°C° 0 mm 1 mps 629 mmHg 78%
    17:00 +2°C° 0 mm 1 mps 629 mmHg 78%
    18:00 +1°C° 0 mm 1 mps 629 mmHg 79%
    19:00 +1°C° 0 mm 1 mps 629 mmHg 79%
    20:00 0°C° 0 mm 1 mps 630 mmHg 79%
    21:00 0°C° 0 mm 1 mps 630 mmHg 78%
    22:00 -2°C° 0 mm 2 mps 630 mmHg 79%
    23:00 -2°C° 0 mm 2 mps 630 mmHg 79%

    Day after tomorrow, 9 December, Monday

    Time Temperature Precipitation Wind Pressure Humidity
    00:00 -3°C° 0 mm 2 mps 630 mmHg 80%
    01:00 -3°C° 0 mm 2 mps 630 mmHg 81%
    02:00 -3°C° 0 mm 2 mps 630 mmHg 81%
    03:00 -4°C° 0 mm 2 mps 630 mmHg 82%
    04:00 -4°C° 0 mm 2 mps 630 mmHg 83%
    05:00 -4°C° 0 mm 2 mps 630 mmHg 83%
    06:00 -4°C° 0 mm 2 mps 630 mmHg 83%
    07:00 -3°C° 0 mm 2 mps 630 mmHg 82%
    08:00 -3°C° 0 mm 2 mps 631 mmHg 81%
    09:00 -2°C° 0 mm 2 mps 632 mmHg 79%
    10:00 -1°C° 0 mm 2 mps 632 mmHg 77%
    11:00 +1°C° 0 mm 2 mps 632 mmHg 75%
    12:00 +2°C° 0 mm 2 mps 632 mmHg 72%
    13:00 +2°C° 0 mm 2 mps 632 mmHg 74%
    14:00 +2°C° 0 mm 2 mps 632 mmHg 75%
    15:00 +2°C° 0 mm 1 mps 631 mmHg 76%
    16:00 +1°C° 0 mm 1 mps 631 mmHg 78%
    17:00 -2°C° 0 mm 2 mps 632 mmHg 80%
    18:00 -3°C° 0 mm 2 mps 632 mmHg 82%
    19:00 -3°C° 0 mm 2 mps 632 mmHg 81%
    20:00 -3°C° 0 mm 2 mps 632 mmHg 80%
    21:00 -4°C° 0 mm 2 mps 632 mmHg 79%
    22:00 -4°C° 0 mm 2 mps 632 mmHg 79%
    23:00 -4°C° 0 mm 2 mps 632 mmHg 78%

    10 December, Tuesday

    Time Temperature Precipitation Wind Pressure Humidity
    00:00 -4°C° 0 mm 2 mps 632 mmHg 77%
    01:00 -5°C° 0 mm 2 mps 632 mmHg 77%
    02:00 -5°C° 0 mm 2 mps 632 mmHg 76%
    03:00 -5°C° 0 mm 2 mps 632 mmHg 75%
    04:00 -5°C° 0 mm 2 mps 632 mmHg 75%
    05:00 -5°C° 0 mm 2 mps 632 mmHg 75%
    06:00 -5°C° 0 mm 2 mps 632 mmHg 75%
    07:00 -5°C° 0 mm 2 mps 633 mmHg 74%
    08:00 -4°C° 0 mm 2 mps 633 mmHg 72%
    09:00 -3°C° 0 mm 2 mps 633 mmHg 71%
    10:00 -2°C° 0 mm 2 mps 633 mmHg 69%
    11:00 -1°C° 0 mm 2 mps 633 mmHg 67%
    12:00 +1°C° 0 mm 2 mps 633 mmHg 66%
    13:00 +2°C° 0 mm 1 mps 633 mmHg 68%
    14:00 +2°C° 0 mm 1 mps 632 mmHg 70%
    15:00 +2°C° 0 mm 1 mps 632 mmHg 72%
    16:00 0°C° 0 mm 1 mps 632 mmHg 75%
    17:00 -3°C° 0 mm 2 mps 632 mmHg 77%
    18:00 -4°C° 0 mm 2 mps 632 mmHg 79%
    19:00 -4°C° 0 mm 2 mps 632 mmHg 77%
    20:00 -5°C° 0 mm 2 mps 632 mmHg 74%
    21:00 -5°C° 0 mm 2 mps 632 mmHg 72%
    22:00 -5°C° 0 mm 2 mps 632 mmHg 71%
    23:00 -5°C° 0 mm 2 mps 632 mmHg 71%

    11 December, Wednesday

    Time Temperature Precipitation Wind Pressure Humidity
    00:00 -5°C° 0 mm 2 mps 632 mmHg 70%
    01:00 -5°C° 0 mm 2 mps 632 mmHg 70%
    02:00 -5°C° 0 mm 2 mps 632 mmHg 69%
    03:00 -5°C° 0 mm 2 mps 632 mmHg 69%
    04:00 -5°C° 0 mm 2 mps 632 mmHg 69%
    05:00 -5°C° 0 mm 2 mps 632 mmHg 69%
    06:00 -5°C° 0 mm 2 mps 632 mmHg 69%
    07:00 -4°C° 0 mm 2 mps 632 mmHg 68%
    08:00 -4°C° 0 mm 2 mps 633 mmHg 67%
    09:00 -3°C° 0 mm 2 mps 633 mmHg 67%
    10:00 -2°C° 0 mm 2 mps 633 mmHg 65%
    11:00 -1°C° 0 mm 2 mps 633 mmHg 64%
    12:00 +2°C° 0 mm 2 mps 633 mmHg 62%
    13:00 +2°C° 0 mm 2 mps 632 mmHg 65%
    14:00 +1°C° 0 mm 2 mps 632 mmHg 67%
    15:00 +1°C° 0 mm 2 mps 632 mmHg 69%
    16:00 -1°C° 0 mm 2 mps 632 mmHg 70%
    17:00 -2°C° 0 mm 2 mps 632 mmHg 70%
    18:00 -3°C° 0 mm 2 mps 632 mmHg 71%
    19:00 -4°C° 0 mm 2 mps 632 mmHg 70%
    20:00 -4°C° 0 mm 2 mps 632 mmHg 68%
    21:00 -4°C° 0 mm 2 mps 632 mmHg 67%
    22:00 -4°C° 0 mm 2 mps 632 mmHg 68%
    23:00 -4°C° 0 mm 2 mps 632 mmHg 68%

    12 December, Thursday

    Time Temperature Precipitation Wind Pressure Humidity
    00:00 -4°C° 0 mm 2 mps 632 mmHg 68%
    01:00 -4°C° 0 mm 2 mps 631 mmHg 69%
    02:00 -5°C° 0 mm 2 mps 631 mmHg 69%
    03:00 -5°C° 0 mm 2 mps 631 mmHg 70%
    04:00 -5°C° 0 mm 2 mps 631 mmHg 70%
    05:00 -5°C° 0 mm 2 mps 631 mmHg 70%
    06:00 -5°C° 0 mm 2 mps 631 mmHg 71%
    07:00 -4°C° 0 mm 2 mps 631 mmHg 70%
    08:00 -4°C° 0 mm 2 mps 631 mmHg 69%
    09:00 -3°C° 0 mm 2 mps 631 mmHg 68%
    10:00 -2°C° 0 mm 2 mps 631 mmHg 67%
    11:00 -1°C° 0 mm 2 mps 631 mmHg 66%
    12:00 +1°C° 0 mm 2 mps 631 mmHg 65%
    13:00 +1°C° 0 mm 2 mps 630 mmHg 67%
    14:00 -1°C° 0 mm 2 mps 630 mmHg 70%
    15:00 -1°C° 0 mm 2 mps 629 mmHg 72%
    16:00 -2°C° 0 mm 2 mps 629 mmHg 73%
    17:00 -3°C° 0 mm 2 mps 629 mmHg 75%
    18:00 -5°C° 0 mm 2 mps 629 mmHg 76%
    19:00 -5°C° 0 mm 2 mps 628 mmHg 75%
    20:00 -5°C° 0 mm 2 mps 628 mmHg 74%
    21:00 -5°C° 0 mm 2 mps 628 mmHg 72%
    22:00 -5°C° 0 mm 2 mps 628 mmHg 72%
    23:00 -5°C° 0 mm 2 mps 628 mmHg 72%
    Show more